Aeroporto :
LOGIN :

Iscrizione | Disclaimer

   EN    FR    IT 

 










Sommario :    VFR   VFR Marginale   IFR   IFR Intensivo   IFR Molto Intensivo
Visibilità : 
Base nubi : 
>= 8 km
>= 3000ft
5 / 8 km
1000 / 3000 ft
1500m / 5 km
500 / 1000 ft
800 / 1500m
200 / 500 ft
< 800m
< 200 ft
Simboli :   Temporali  Nebbia  Neve Forte  Precipitazioni Forti  Vento > 20 kt
SIGMETs :   Varie  Temporali  Ghiacco  Turbolenza  Onda orograficha  Ceneri Vulcaniche






- Altitudine del aeroporto : 74 ft
- Codice IATA : NDZ


ETMN - Cuxhaven Nordholz Sea AB

ULTIMO METAR :
  • 220620Z 23012G22KT 9999 BKN110 03/02 Q0984 BLU BLU

METARs OBSOLETI :
  • 220520Z 24009KT 9999 SCT027 BKN055 03/02 Q0983 BLU BLU
  • 220420Z 27016G27KT 9999 -RASN SCT005 BKN011 03/02 Q0982 RERASN GRN

TAF TAF ETMN
Valido dal 22 a 06 ore il 22 a 15 ore UTC


220523Z 2206/2215 24012G22KT 9999 NSW SCT007 BKN040 BKN060
BECMG 2207/2209 22015G28KT 9999 NSW FEW020 BKN035
TEMPO 2208/2215 23018G32KT 9999 NSW BKN020



MetMap, La meteo Aeronautica in un colpo d'occhio ! - Copyright ORBIFLY Dicembre 2007 - Disclaimer

ORBIFLY MET'MAP TEAM :

Programmazione e sviluppo : Alexandra Zaïnal
Concezione : Baudouin d'Aumeries
Aiuto per la programmazione : Marc-Olivier Méhu
Supporto tecnico e logistico : Manuel Goepfert
Aiuto per la traduzione : Arnaldo La Scala

Contatto : metmap@orbifly.com




FONTI E CREDITI :

   NOAA